User: anonymous   Login
Location: *
(23.5860°S, 65.4036°W)
Time: 14:10:33
(UTC+00:00)
Language:

Cosmos 1655 Rocket - Orbit

View from above orbital plane
View from above orbital plane
View from above satellite
View from above satellite

Ground track
Ground track

The orbit data is extracted from the following two-line orbital elements,

1 15752U 85041B   19290.84274085 +.00000005 +00000-0 -10148-4 0  9991
2 15752 082.9525 037.5890 0022916 279.3248 080.5316 13.73122135722620
Epoch (UTC): 17 October 2019 20:13:32
Eccentricity: 0.0022916
inclination: 82.9525°
perigee height: 971 km
apogee height: 1005 km
right ascension of ascending node: 37.5890°
argument of perigee: 279.3248°
revolutions per day: 13.73122135
mean anomaly at epoch: 80.5316°
orbit number at epoch: 72262

The dashed part of the orbit path shows where the satellite is in the earth's shadow,  

DLR